Time,TemperatureF,DewpointF,PressureIn,WindDirection,WindDirectionDegrees,WindSpeedMPH,WindSpeedGustMPH,Humidity,HourlyPrecipIn,Conditions,Clouds,dailyrainin,SoftwareType,DateUTC
2013-07-13 00:02:00,72.0,58.2,29.97,SSE,158,2.5,3.4,62,0.00,,,0.00,WUHU216HW,2013-07-13 05:02:00,
2013-07-13 00:07:00,72.0,57.8,29.98,SE,135,4.5,4.5,61,0.00,,,0.00,WUHU216HW,2013-07-13 05:07:00,
2013-07-13 00:12:00,72.0,58.2,29.98,SE,135,2.2,4.5,62,0.00,,,0.00,WUHU216HW,2013-07-13 05:12:00,
2013-07-13 00:17:00,71.8,58.1,29.98,SSE,158,1.3,4.5,62,0.00,,,0.00,WUHU216HW,2013-07-13 05:17:00,
2013-07-13 00:22:00,71.6,58.0,29.98,SE,135,2.0,2.5,62,0.00,,,0.00,WUHU216HW,2013-07-13 05:22:00,
2013-07-13 00:27:00,71.5,58.2,29.98,East,90,2.0,2.5,63,0.00,,,0.00,WUHU216HW,2013-07-13 05:27:00,
2013-07-13 00:32:00,71.3,58.1,29.98,SE,135,2.2,2.2,63,0.00,,,0.00,WUHU216HW,2013-07-13 05:32:00,
2013-07-13 00:37:00,71.1,57.9,29.98,SE,135,3.4,3.4,63,0.00,,,0.00,WUHU216HW,2013-07-13 05:37:00,
2013-07-13 00:42:00,70.7,57.5,29.99,SE,135,1.3,3.4,63,0.00,,,0.00,WUHU216HW,2013-07-13 05:42:00,
2013-07-13 00:47:00,70.6,57.8,29.99,SE,135,1.3,2.9,64,0.00,,,0.00,WUHU216HW,2013-07-13 05:47:00,
2013-07-13 00:52:00,70.4,57.6,29.98,SE,135,2.7,2.7,64,0.00,,,0.00,WUHU216HW,2013-07-13 05:52:00,
2013-07-13 00:57:00,70.2,57.9,29.99,SE,135,3.1,3.1,65,0.00,,,0.00,WUHU216HW,2013-07-13 05:57:00,
2013-07-13 01:02:00,70.2,57.9,29.98,SE,135,2.7,3.1,65,0.00,,,0.00,WUHU216HW,2013-07-13 06:02:00,
2013-07-13 01:07:00,70.0,57.7,29.99,SSE,158,2.7,3.1,65,0.00,,,0.00,WUHU216HW,2013-07-13 06:07:00,
2013-07-13 01:12:00,69.8,58.0,29.98,ESE,113,4.0,4.0,66,0.00,,,0.00,WUHU216HW,2013-07-13 06:12:00,
2013-07-13 01:17:00,69.7,57.8,29.99,SSE,158,3.8,4.0,66,0.00,,,0.00,WUHU216HW,2013-07-13 06:17:00,
2013-07-13 01:22:00,69.7,58.1,29.99,SE,135,3.8,4.0,67,0.00,,,0.00,WUHU216HW,2013-07-13 06:22:00,
2013-07-13 01:27:00,69.5,58.0,29.99,SE,135,2.9,4.0,67,0.00,,,0.00,WUHU216HW,2013-07-13 06:27:00,
2013-07-13 01:32:00,69.5,57.6,29.99,South,180,2.9,3.8,66,0.00,,,0.00,WUHU216HW,2013-07-13 06:32:00,
2013-07-13 01:37:00,69.3,57.9,29.99,SE,135,2.5,2.9,67,0.00,,,0.00,WUHU216HW,2013-07-13 06:37:00,
2013-07-13 01:42:00,69.1,58.1,29.99,SE,135,2.5,3.4,68,0.00,,,0.00,WUHU216HW,2013-07-13 06:42:00,
2013-07-13 01:47:00,68.9,58.3,29.99,SSE,158,1.8,3.4,69,0.00,,,0.00,WUHU216HW,2013-07-13 06:47:00,
2013-07-13 01:52:00,68.9,58.0,29.99,SE,135,2.5,2.5,68,0.00,,,0.00,WUHU216HW,2013-07-13 06:52:00,
2013-07-13 01:57:00,68.8,58.1,29.99,SSE,158,2.2,3.4,69,0.00,,,0.00,WUHU216HW,2013-07-13 06:57:00,
2013-07-13 02:02:00,68.8,57.8,29.99,SE,135,3.8,3.8,68,0.00,,,0.00,WUHU216HW,2013-07-13 07:02:00,
2013-07-13 02:07:00,68.8,57.8,29.99,SE,135,2.7,3.8,68,0.00,,,0.00,WUHU216HW,2013-07-13 07:07:00,
2013-07-13 02:12:00,68.4,57.9,29.99,SSE,158,2.2,3.8,69,0.00,,,0.00,WUHU216HW,2013-07-13 07:12:00,
2013-07-13 02:17:00,68.4,57.9,30.00,South,180,1.8,2.2,69,0.00,,,0.00,WUHU216HW,2013-07-13 07:17:00,
2013-07-13 02:22:00,67.9,57.8,30.00,SE,135,2.2,2.2,70,0.00,,,0.00,WUHU216HW,2013-07-13 07:22:00,
2013-07-13 02:27:00,67.9,57.8,30.00,SE,135,1.3,2.2,70,0.00,,,0.00,WUHU216HW,2013-07-13 07:27:00,
2013-07-13 02:32:00,67.9,57.8,30.00,SSE,158,2.0,2.2,70,0.00,,,0.00,WUHU216HW,2013-07-13 07:32:00,
2013-07-13 02:37:00,67.7,57.6,30.00,SSE,158,0.7,2.0,70,0.00,,,0.00,WUHU216HW,2013-07-13 07:37:00,
2013-07-13 02:42:00,67.3,57.2,30.00,South,180,2.9,2.9,70,0.00,,,0.00,WUHU216HW,2013-07-13 07:42:00,
2013-07-13 02:47:00,67.3,57.2,30.00,SSE,158,2.0,2.9,70,0.00,,,0.00,WUHU216HW,2013-07-13 07:47:00,
2013-07-13 02:52:00,67.3,57.2,30.00,ESE,113,1.8,2.9,70,0.00,,,0.00,WUHU216HW,2013-07-13 07:52:00,
2013-07-13 02:57:00,67.1,57.4,30.00,SSE,158,0.7,2.0,71,0.00,,,0.00,WUHU216HW,2013-07-13 07:57:00,
2013-07-13 03:02:00,67.0,57.2,30.00,SSE,158,0.4,1.8,71,0.00,,,0.00,WUHU216HW,2013-07-13 08:02:00,
2013-07-13 03:07:00,66.8,57.4,30.01,SE,135,1.6,1.6,72,0.00,,,0.00,WUHU216HW,2013-07-13 08:07:00,
2013-07-13 03:12:00,66.8,57.4,30.01,SE,135,1.3,1.6,72,0.00,,,0.00,WUHU216HW,2013-07-13 08:12:00,
2013-07-13 03:17:00,66.8,57.4,30.00,SSE,158,1.8,1.8,72,0.00,,,0.00,WUHU216HW,2013-07-13 08:17:00,
2013-07-13 03:22:00,66.8,57.4,30.00,SSE,158,0.2,1.8,72,0.00,,,0.00,WUHU216HW,2013-07-13 08:22:00,
2013-07-13 03:27:00,66.8,57.4,30.00,SE,135,2.0,2.0,72,0.00,,,0.00,WUHU216HW,2013-07-13 08:27:00,
2013-07-13 03:32:00,66.8,58.2,30.00,SSE,158,1.8,2.0,74,0.00,,,0.00,WUHU216HW,2013-07-13 08:32:00,
2013-07-13 03:37:00,66.8,57.4,30.00,SE,135,1.8,2.0,72,0.00,,,0.00,WUHU216HW,2013-07-13 08:37:00,
2013-07-13 03:42:00,66.6,57.7,30.00,SE,135,2.5,2.5,73,0.00,,,0.00,WUHU216HW,2013-07-13 08:42:00,
2013-07-13 03:47:00,66.6,57.7,30.00,SE,135,0.4,2.5,73,0.00,,,0.00,WUHU216HW,2013-07-13 08:47:00,
2013-07-13 03:52:00,66.6,57.7,30.00,SSE,158,1.3,2.5,73,0.00,,,0.00,WUHU216HW,2013-07-13 08:52:00,
2013-07-13 03:57:00,66.6,58.1,29.99,South,180,1.6,1.6,74,0.00,,,0.00,WUHU216HW,2013-07-13 08:57:00,
2013-07-13 04:02:00,66.6,57.7,30.00,SSE,158,2.7,2.7,73,0.00,,,0.00,WUHU216HW,2013-07-13 09:02:00,
2013-07-13 04:07:00,66.6,57.7,30.00,SSE,158,3.4,3.4,73,0.00,,,0.00,WUHU216HW,2013-07-13 09:07:00,
2013-07-13 04:12:00,66.6,58.1,29.99,South,180,3.4,3.4,74,0.00,,,0.00,WUHU216HW,2013-07-13 09:12:00,
2013-07-13 04:17:00,66.4,57.9,29.99,SSE,158,2.5,3.4,74,0.00,,,0.00,WUHU216HW,2013-07-13 09:17:00,
2013-07-13 04:22:00,66.4,57.9,29.99,South,180,3.6,3.6,74,0.00,,,0.00,WUHU216HW,2013-07-13 09:22:00,
2013-07-13 04:27:00,66.4,57.9,29.99,SSE,158,1.8,3.6,74,0.00,,,0.00,WUHU216HW,2013-07-13 09:27:00,
2013-07-13 04:32:00,66.4,57.9,29.99,South,180,3.4,3.6,74,0.00,,,0.00,WUHU216HW,2013-07-13 09:32:00,
2013-07-13 04:37:00,66.2,57.7,29.99,SSE,158,4.0,4.0,74,0.00,,,0.00,WUHU216HW,2013-07-13 09:37:00,
2013-07-13 04:42:00,66.2,57.7,29.99,SSE,158,3.6,4.0,74,0.00,,,0.00,WUHU216HW,2013-07-13 09:42:00,
2013-07-13 04:47:00,66.1,57.9,29.99,SSE,158,4.7,4.7,75,0.00,,,0.00,WUHU216HW,2013-07-13 09:47:00,
2013-07-13 04:52:00,66.1,57.9,29.99,SSE,158,3.8,4.7,75,0.00,,,0.00,WUHU216HW,2013-07-13 09:52:00,
2013-07-13 04:57:00,65.9,57.7,29.99,SSE,158,3.1,4.7,75,0.00,,,0.00,WUHU216HW,2013-07-13 09:57:00,
2013-07-13 05:02:00,65.9,57.7,29.99,South,180,4.0,4.0,75,0.00,,,0.00,WUHU216HW,2013-07-13 10:02:00,
2013-07-13 05:07:00,65.7,57.9,29.98,SE,135,2.2,4.0,76,0.00,,,0.00,WUHU216HW,2013-07-13 10:07:00,
2013-07-13 05:12:00,65.5,57.8,29.98,South,180,2.5,4.0,76,0.00,,,0.00,WUHU216HW,2013-07-13 10:12:00,
2013-07-13 05:17:00,65.3,57.6,29.99,SSE,158,1.8,2.5,76,0.00,,,0.00,WUHU216HW,2013-07-13 10:17:00,
2013-07-13 05:22:00,65.3,57.6,29.99,SE,135,2.5,2.5,76,0.00,,,0.00,WUHU216HW,2013-07-13 10:22:00,
2013-07-13 05:27:00,65.3,57.6,29.99,SSE,158,0.7,2.5,76,0.00,,,0.00,WUHU216HW,2013-07-13 10:27:00,
2013-07-13 05:32:00,65.2,57.4,29.99,South,180,1.1,2.5,76,0.00,,,0.00,WUHU216HW,2013-07-13 10:32:00,
2013-07-13 05:37:00,65.2,57.8,29.99,SE,135,1.1,1.1,77,0.00,,,0.00,WUHU216HW,2013-07-13 10:37:00,
2013-07-13 05:42:00,65.0,57.6,29.99,SE,135,1.3,1.3,77,0.00,,,0.00,WUHU216HW,2013-07-13 10:42:00,
2013-07-13 05:47:00,65.0,57.6,29.99,SE,135,1.3,1.3,77,0.00,,,0.00,WUHU216HW,2013-07-13 10:47:00,
2013-07-13 05:52:00,65.0,57.6,29.99,South,180,1.8,1.8,77,0.00,,,0.00,WUHU216HW,2013-07-13 10:52:00,
2013-07-13 05:57:00,64.8,57.4,29.99,SE,135,1.8,1.8,77,0.00,,,0.00,WUHU216HW,2013-07-13 10:57:00,
2013-07-13 06:02:00,64.8,57.4,29.99,SSE,158,1.8,1.8,77,0.00,,,0.00,WUHU216HW,2013-07-13 11:02:00,
2013-07-13 06:07:00,65.2,58.2,29.99,South,180,1.3,2.2,78,0.00,,,0.00,WUHU216HW,2013-07-13 11:07:00,
2013-07-13 06:12:00,65.0,57.6,29.99,South,180,2.9,2.9,77,0.00,,,0.00,WUHU216HW,2013-07-13 11:12:00,
2013-07-13 06:17:00,65.0,57.6,29.99,SSE,158,4.3,4.3,77,0.00,,,0.00,WUHU216HW,2013-07-13 11:17:00,
2013-07-13 06:22:00,65.2,58.2,29.99,South,180,1.8,4.3,78,0.00,,,0.00,WUHU216HW,2013-07-13 11:22:00,
2013-07-13 06:27:00,65.3,58.0,30.00,SSE,158,2.7,4.3,77,0.00,,,0.00,WUHU216HW,2013-07-13 11:27:00,
2013-07-13 06:32:00,65.5,58.2,30.00,SSE,158,2.5,2.7,77,0.00,,,0.00,WUHU216HW,2013-07-13 11:32:00,
2013-07-13 06:37:00,65.7,58.3,30.00,South,180,4.0,4.0,77,0.00,,,0.00,WUHU216HW,2013-07-13 11:37:00,
2013-07-13 06:42:00,65.7,58.3,30.00,South,180,2.5,4.0,77,0.00,,,0.00,WUHU216HW,2013-07-13 11:42:00,
2013-07-13 06:47:00,65.7,58.3,30.00,South,180,2.2,2.5,77,0.00,,,0.00,WUHU216HW,2013-07-13 11:47:00,
2013-07-13 06:52:00,65.9,58.5,30.00,SSE,158,2.2,2.5,77,0.00,,,0.00,WUHU216HW,2013-07-13 11:52:00,
2013-07-13 06:57:00,66.2,58.4,30.01,SSE,158,4.0,4.0,76,0.00,,,0.00,WUHU216HW,2013-07-13 11:57:00,
2013-07-13 07:02:00,66.4,58.6,30.01,South,180,3.8,4.0,76,0.00,,,0.00,WUHU216HW,2013-07-13 12:02:00,
2013-07-13 07:07:00,66.8,58.6,30.01,SSE,158,2.5,4.7,75,0.00,,,0.00,WUHU216HW,2013-07-13 12:07:00,
2013-07-13 07:12:00,66.8,58.6,30.01,South,180,4.0,4.7,75,0.00,,,0.00,WUHU216HW,2013-07-13 12:12:00,
2013-07-13 07:17:00,67.0,58.8,30.01,SSE,158,4.3,4.3,75,0.00,,,0.00,WUHU216HW,2013-07-13 12:17:00,
2013-07-13 07:22:00,67.0,58.8,30.01,South,180,3.4,4.3,75,0.00,,,0.00,WUHU216HW,2013-07-13 12:22:00,
2013-07-13 07:27:00,67.3,59.1,30.02,SSE,158,3.8,4.3,75,0.00,,,0.00,WUHU216HW,2013-07-13 12:27:00,
2013-07-13 07:32:00,67.5,59.0,30.02,South,180,4.0,4.0,74,0.00,,,0.00,WUHU216HW,2013-07-13 12:32:00,
2013-07-13 07:37:00,68.0,59.5,30.01,South,180,4.7,4.7,74,0.00,,,0.00,WUHU216HW,2013-07-13 12:37:00,
2013-07-13 07:42:00,68.8,59.4,30.01,South,180,5.6,5.6,72,0.00,,,0.00,WUHU216HW,2013-07-13 12:42:00,
2013-07-13 07:47:00,69.3,59.9,30.01,SSE,158,4.5,5.6,72,0.00,,,0.00,WUHU216HW,2013-07-13 12:47:00,
2013-07-13 07:52:00,70.2,59.9,30.01,SSE,158,3.4,5.6,70,0.00,,,0.00,WUHU216HW,2013-07-13 12:52:00,
2013-07-13 07:57:00,70.7,60.5,30.01,South,180,4.7,4.7,70,0.00,,,0.00,WUHU216HW,2013-07-13 12:57:00,
2013-07-13 08:02:00,71.1,60.8,30.01,South,180,4.7,4.7,70,0.00,,,0.00,WUHU216HW,2013-07-13 13:02:00,
2013-07-13 08:07:00,71.3,60.6,30.01,SSE,158,3.8,4.7,69,0.00,,,0.00,WUHU216HW,2013-07-13 13:07:00,
2013-07-13 08:12:00,71.8,60.7,30.01,South,180,6.3,6.3,68,0.00,,,0.00,WUHU216HW,2013-07-13 13:12:00,
2013-07-13 08:17:00,72.2,61.0,30.01,South,180,4.0,6.3,68,0.00,,,0.00,WUHU216HW,2013-07-13 13:17:00,
2013-07-13 08:22:00,72.4,60.8,30.01,South,180,4.7,6.3,67,0.00,,,0.00,WUHU216HW,2013-07-13 13:22:00,
2013-07-13 08:27:00,73.3,61.2,30.01,SSE,158,7.2,7.2,66,0.00,,,0.00,WUHU216HW,2013-07-13 13:27:00,
2013-07-13 08:32:00,73.4,61.4,30.02,South,180,6.9,7.2,66,0.00,,,0.00,WUHU216HW,2013-07-13 13:32:00,
2013-07-13 08:37:00,73.8,61.3,30.02,South,180,8.5,8.5,65,0.00,,,0.00,WUHU216HW,2013-07-13 13:37:00,
2013-07-13 08:42:00,74.5,61.6,30.02,South,180,5.6,8.5,64,0.00,,,0.00,WUHU216HW,2013-07-13 13:42:00,
2013-07-13 08:47:00,74.9,62.3,30.02,SSE,158,6.7,6.7,65,0.00,,,0.00,WUHU216HW,2013-07-13 13:47:00,
2013-07-13 08:52:00,75.4,61.5,30.02,SE,135,6.9,6.9,62,0.00,,,0.00,WUHU216HW,2013-07-13 13:52:00,
2013-07-13 08:57:00,75.8,61.8,30.02,South,180,8.5,8.5,62,0.00,,,0.00,WUHU216HW,2013-07-13 13:57:00,
2013-07-13 09:02:00,76.3,61.9,30.02,SSE,158,5.6,8.5,61,0.00,,,0.00,WUHU216HW,2013-07-13 14:02:00,
2013-07-13 09:07:00,76.7,62.2,30.02,South,180,5.4,5.6,61,0.00,,,0.00,WUHU216HW,2013-07-13 14:07:00,
2013-07-13 09:12:00,77.4,61.9,30.02,SE,135,4.0,5.6,59,0.00,,,0.00,WUHU216HW,2013-07-13 14:12:00,
2013-07-13 09:17:00,77.8,62.3,30.02,South,180,6.7,6.7,59,0.00,,,0.00,WUHU216HW,2013-07-13 14:17:00,
2013-07-13 09:22:00,78.1,61.7,30.02,SSE,158,7.4,7.4,57,0.00,,,0.00,WUHU216HW,2013-07-13 14:22:00,
2013-07-13 09:27:00,78.1,61.1,30.02,SSE,158,6.9,7.4,56,0.00,,,0.00,WUHU216HW,2013-07-13 14:27:00,
2013-07-13 09:32:00,78.1,61.7,30.02,South,180,5.8,7.4,57,0.00,,,0.00,WUHU216HW,2013-07-13 14:32:00,
2013-07-13 09:37:00,78.1,61.1,30.02,South,180,5.4,7.6,56,0.00,,,0.00,WUHU216HW,2013-07-13 14:37:00,
2013-07-13 09:42:00,77.8,60.8,30.03,SSE,158,7.8,7.8,56,0.00,,,0.00,WUHU216HW,2013-07-13 14:42:00,
2013-07-13 09:47:00,78.7,62.2,30.02,SSE,158,6.5,7.8,57,0.00,,,0.00,WUHU216HW,2013-07-13 14:47:00,
2013-07-13 09:52:00,79.4,62.3,30.02,South,180,7.8,7.8,56,0.00,,,0.00,WUHU216HW,2013-07-13 14:52:00,
2013-07-13 09:57:00,79.6,61.9,30.03,South,180,9.4,9.4,55,0.00,,,0.00,WUHU216HW,2013-07-13 14:57:00,
2013-07-13 10:02:00,79.6,61.9,30.02,SSE,158,4.7,9.4,55,0.00,,,0.00,WUHU216HW,2013-07-13 15:02:00,
2013-07-13 10:07:00,79.7,61.0,30.02,South,180,11.2,11.2,53,0.00,,,0.00,WUHU216HW,2013-07-13 15:07:00,
2013-07-13 10:12:00,79.6,60.9,30.02,SSW,203,7.4,11.2,53,0.00,,,0.00,WUHU216HW,2013-07-13 15:12:00,
2013-07-13 10:17:00,79.7,61.6,30.02,SSE,158,5.1,11.2,54,0.00,,,0.00,WUHU216HW,2013-07-13 15:17:00,
2013-07-13 10:22:00,79.7,61.6,30.02,South,180,4.7,7.6,54,0.00,,,0.00,WUHU216HW,2013-07-13 15:22:00,
2013-07-13 10:27:00,81.2,62.4,30.02,South,180,5.8,8.1,53,0.00,,,0.00,WUHU216HW,2013-07-13 15:27:00,
2013-07-13 10:32:00,81.7,63.4,30.02,South,180,4.7,8.1,54,0.00,,,0.00,WUHU216HW,2013-07-13 15:32:00,
2013-07-13 10:37:00,82.1,62.6,30.01,South,180,10.5,10.5,52,0.00,,,0.00,WUHU216HW,2013-07-13 15:37:00,
2013-07-13 10:42:00,81.5,61.7,30.02,South,180,7.4,10.5,51,0.00,,,0.00,WUHU216HW,2013-07-13 15:42:00,
2013-07-13 10:47:00,81.4,62.0,30.02,SSE,158,4.3,8.9,52,0.00,,,0.00,WUHU216HW,2013-07-13 15:47:00,
2013-07-13 10:52:00,81.5,61.7,30.01,SSW,203,9.2,9.2,51,0.00,,,0.00,WUHU216HW,2013-07-13 15:52:00,
2013-07-13 10:57:00,81.5,62.2,30.02,SSW,203,6.9,9.2,52,0.00,,,0.00,WUHU216HW,2013-07-13 15:57:00,
2013-07-13 11:02:00,81.4,62.0,30.02,SSW,203,7.6,8.9,52,0.00,,,0.00,WUHU216HW,2013-07-13 16:02:00,
2013-07-13 11:07:00,81.5,62.2,30.01,SSE,158,6.3,7.6,52,0.00,,,0.00,WUHU216HW,2013-07-13 16:07:00,
2013-07-13 11:12:00,81.7,62.3,30.01,SSE,158,5.4,7.6,52,0.00,,,0.00,WUHU216HW,2013-07-13 16:12:00,
2013-07-13 11:17:00,82.1,62.6,30.01,South,180,6.9,6.9,52,0.00,,,0.00,WUHU216HW,2013-07-13 16:17:00,
2013-07-13 11:22:00,82.4,62.5,30.01,South,180,8.5,8.5,51,0.00,,,0.00,WUHU216HW,2013-07-13 16:22:00,
2013-07-13 11:27:00,82.4,62.5,30.01,South,180,7.8,8.5,51,0.00,,,0.00,WUHU216HW,2013-07-13 16:27:00,
2013-07-13 11:32:00,82.8,62.8,30.01,SW,225,5.4,8.5,51,0.00,,,0.00,WUHU216HW,2013-07-13 16:32:00,
2013-07-13 11:37:00,83.9,62.1,30.01,South,180,9.2,9.2,48,0.00,,,0.00,WUHU216HW,2013-07-13 16:37:00,
2013-07-13 11:42:00,83.7,61.3,30.01,SSW,203,6.3,9.2,47,0.00,,,0.00,WUHU216HW,2013-07-13 16:42:00,
2013-07-13 11:47:00,83.5,63.0,30.01,SSE,158,5.6,9.2,50,0.00,,,0.00,WUHU216HW,2013-07-13 16:47:00,
2013-07-13 11:52:00,84.2,63.7,30.01,SSE,158,5.6,6.3,50,0.00,,,0.00,WUHU216HW,2013-07-13 16:52:00,
2013-07-13 11:57:00,84.6,64.5,30.01,SE,135,3.8,6.0,51,0.00,,,0.00,WUHU216HW,2013-07-13 16:57:00,
2013-07-13 12:02:00,85.3,65.3,30.01,SE,135,5.1,5.6,51,0.00,,,0.00,WUHU216HW,2013-07-13 17:02:00,
2013-07-13 12:07:00,86.2,64.3,30.01,SE,135,5.6,5.6,48,0.00,,,0.00,WUHU216HW,2013-07-13 17:07:00,
2013-07-13 12:12:00,86.8,65.3,30.01,SSE,158,7.4,7.4,49,0.00,,,0.00,WUHU216HW,2013-07-13 17:12:00,
2013-07-13 12:17:00,86.8,66.0,30.01,South,180,4.7,7.4,50,0.00,,,0.00,WUHU216HW,2013-07-13 17:17:00,
2013-07-13 12:22:00,86.4,65.1,30.01,SSE,158,3.8,7.4,49,0.00,,,0.00,WUHU216HW,2013-07-13 17:22:00,
2013-07-13 12:27:00,86.9,66.2,30.01,South,180,4.0,5.8,50,0.00,,,0.00,WUHU216HW,2013-07-13 17:27:00,
2013-07-13 12:32:00,86.8,65.3,30.01,ESE,113,2.7,4.0,49,0.00,,,0.00,WUHU216HW,2013-07-13 17:32:00,
2013-07-13 12:37:00,86.6,65.2,30.01,SSW,203,3.1,4.0,49,0.00,,,0.00,WUHU216HW,2013-07-13 17:37:00,
2013-07-13 12:42:00,86.4,64.5,30.00,ESE,113,4.7,5.4,48,0.00,,,0.00,WUHU216HW,2013-07-13 17:42:00,
2013-07-13 12:47:00,86.0,65.3,30.00,SSE,158,2.7,5.4,50,0.00,,,0.00,WUHU216HW,2013-07-13 17:47:00,
2013-07-13 12:52:00,86.4,65.7,30.00,SSW,203,3.1,4.7,50,0.00,,,0.00,WUHU216HW,2013-07-13 17:52:00,
2013-07-13 12:57:00,87.5,66.6,30.00,SSE,158,2.7,4.7,50,0.00,,,0.00,WUHU216HW,2013-07-13 17:57:00,
2013-07-13 13:02:00,87.5,66.0,30.00,SSE,158,5.1,5.1,49,0.00,,,0.00,WUHU216HW,2013-07-13 18:02:00,
2013-07-13 13:07:00,86.8,65.3,30.00,SSE,158,8.5,8.5,49,0.00,,,0.00,WUHU216HW,2013-07-13 18:07:00,
2013-07-13 13:12:00,86.9,65.5,30.00,SSE,158,5.1,8.5,49,0.00,,,0.00,WUHU216HW,2013-07-13 18:12:00,
2013-07-13 13:17:00,87.3,65.3,30.00,ESE,113,3.8,5.1,48,0.00,,,0.00,WUHU216HW,2013-07-13 18:17:00,
2013-07-13 13:22:00,87.1,65.1,30.00,SE,135,3.4,6.0,48,0.00,,,0.00,WUHU216HW,2013-07-13 18:22:00,
2013-07-13 13:27:00,87.1,67.4,29.99,ESE,113,4.3,6.0,52,0.00,,,0.00,WUHU216HW,2013-07-13 18:27:00,
2013-07-13 13:32:00,86.9,65.5,30.00,ESE,113,4.5,4.5,49,0.00,,,0.00,WUHU216HW,2013-07-13 18:32:00,
2013-07-13 13:37:00,86.4,65.7,30.00,South,180,2.7,4.5,50,0.00,,,0.00,WUHU216HW,2013-07-13 18:37:00,
2013-07-13 13:42:00,86.8,66.0,30.00,ESE,113,6.0,6.0,50,0.00,,,0.00,WUHU216HW,2013-07-13 18:42:00,
2013-07-13 13:47:00,86.8,66.0,30.00,SE,135,5.4,6.0,50,0.00,,,0.00,WUHU216HW,2013-07-13 18:47:00,
2013-07-13 13:52:00,86.4,66.2,29.99,SSE,158,3.4,6.3,51,0.00,,,0.00,WUHU216HW,2013-07-13 18:52:00,
2013-07-13 13:57:00,86.0,65.9,29.99,SE,135,4.5,6.3,51,0.00,,,0.00,WUHU216HW,2013-07-13 18:57:00,
2013-07-13 14:02:00,85.7,66.1,29.99,South,180,3.1,4.5,52,0.00,,,0.00,WUHU216HW,2013-07-13 19:02:00,
2013-07-13 14:07:00,86.6,66.3,29.99,SE,135,1.6,4.5,51,0.00,,,0.00,WUHU216HW,2013-07-13 19:07:00,
2013-07-13 14:12:00,86.8,66.0,29.99,ESE,113,3.1,3.4,50,0.00,,,0.00,WUHU216HW,2013-07-13 19:12:00,
2013-07-13 14:17:00,87.5,67.1,29.99,SE,135,4.0,4.0,51,0.00,,,0.00,WUHU216HW,2013-07-13 19:17:00,
2013-07-13 14:22:00,88.9,66.0,29.99,SE,135,4.0,4.9,47,0.00,,,0.00,WUHU216HW,2013-07-13 19:22:00,
2013-07-13 14:27:00,87.8,66.3,29.99,SSE,158,4.7,4.9,49,0.00,,,0.00,WUHU216HW,2013-07-13 19:27:00,
2013-07-13 14:32:00,87.3,67.1,29.99,East,90,4.5,4.7,51,0.00,,,0.00,WUHU216HW,2013-07-13 19:32:00,
2013-07-13 14:37:00,86.9,66.7,29.99,SE,135,3.8,4.7,51,0.00,,,0.00,WUHU216HW,2013-07-13 19:37:00,
2013-07-13 14:42:00,87.3,67.1,29.98,ESE,113,4.7,4.7,51,0.00,,,0.00,WUHU216HW,2013-07-13 19:42:00,
2013-07-13 14:47:00,87.5,67.7,29.98,East,90,2.2,4.7,52,0.00,,,0.00,WUHU216HW,2013-07-13 19:47:00,
2013-07-13 14:52:00,86.9,65.5,29.98,SE,135,5.4,5.4,49,0.00,,,0.00,WUHU216HW,2013-07-13 19:52:00,
2013-07-13 14:57:00,87.1,66.9,29.99,SE,135,6.3,6.3,51,0.00,,,0.00,WUHU216HW,2013-07-13 19:57:00,
2013-07-13 15:02:00,87.1,67.4,29.99,ESE,113,3.8,6.3,52,0.00,,,0.00,WUHU216HW,2013-07-13 20:02:00,
2013-07-13 15:07:00,86.4,67.2,29.99,ESE,113,2.5,3.8,53,0.00,,,0.00,WUHU216HW,2013-07-13 20:07:00,
2013-07-13 15:12:00,86.6,66.9,29.99,South,180,3.4,3.8,52,0.00,,,0.00,WUHU216HW,2013-07-13 20:12:00,
2013-07-13 15:17:00,86.6,66.3,29.99,SE,135,6.3,6.3,51,0.00,,,0.00,WUHU216HW,2013-07-13 20:17:00,
2013-07-13 15:22:00,86.0,67.4,29.99,ESE,113,3.1,6.3,54,0.00,,,0.00,WUHU216HW,2013-07-13 20:22:00,
2013-07-13 15:27:00,86.4,67.8,29.99,SE,135,3.1,6.3,54,0.00,,,0.00,WUHU216HW,2013-07-13 20:27:00,
2013-07-13 15:32:00,86.6,68.5,29.99,East,90,2.9,3.4,55,0.00,,,0.00,WUHU216HW,2013-07-13 20:32:00,
2013-07-13 15:37:00,86.2,67.6,29.99,South,180,3.1,3.4,54,0.00,,,0.00,WUHU216HW,2013-07-13 20:37:00,
2013-07-13 15:42:00,86.6,67.4,29.99,SE,135,2.2,3.1,53,0.00,,,0.00,WUHU216HW,2013-07-13 20:42:00,
2013-07-13 15:47:00,86.4,67.8,29.98,ESE,113,3.6,3.6,54,0.00,,,0.00,WUHU216HW,2013-07-13 20:47:00,
2013-07-13 15:52:00,86.2,68.1,29.98,SE,135,3.6,3.6,55,0.00,,,0.00,WUHU216HW,2013-07-13 20:52:00,
2013-07-13 15:57:00,86.6,67.4,29.98,SE,135,4.5,4.5,53,0.00,,,0.00,WUHU216HW,2013-07-13 20:57:00,
2013-07-13 16:02:00,87.3,68.0,29.98,SE,135,3.4,4.7,53,0.00,,,0.00,WUHU216HW,2013-07-13 21:02:00,
2013-07-13 16:07:00,87.5,67.1,29.98,SSE,158,3.4,4.7,51,0.00,,,0.00,WUHU216HW,2013-07-13 21:07:00,
2013-07-13 16:12:00,87.1,66.3,29.98,SSE,158,5.4,5.4,50,0.00,,,0.00,WUHU216HW,2013-07-13 21:12:00,
2013-07-13 16:17:00,85.9,66.8,29.97,SE,135,2.9,6.3,53,0.00,,,0.00,WUHU216HW,2013-07-13 21:17:00,
2013-07-13 16:22:00,86.2,67.1,29.97,South,180,2.7,6.3,53,0.00,,,0.00,WUHU216HW,2013-07-13 21:22:00,
2013-07-13 16:27:00,86.8,67.6,29.97,ESE,113,2.0,2.9,53,0.00,,,0.00,WUHU216HW,2013-07-13 21:27:00,
2013-07-13 16:32:00,87.5,67.1,29.97,SE,135,2.5,2.7,51,0.00,,,0.00,WUHU216HW,2013-07-13 21:32:00,
2013-07-13 16:37:00,87.5,67.1,29.97,SE,135,2.5,2.5,51,0.00,,,0.00,WUHU216HW,2013-07-13 21:37:00,
2013-07-13 16:59:00,87.5,66.6,29.97,SE,135,4.7,4.7,50,0.00,,,0.00,WUHU216HW,2013-07-13 21:59:00,
2013-07-13 17:04:00,87.3,66.5,29.97,SSE,158,2.5,4.7,50,0.00,,,0.00,WUHU216HW,2013-07-13 22:04:00,
2013-07-13 17:09:00,86.6,67.4,29.97,SE,135,1.6,4.7,53,0.00,,,0.00,WUHU216HW,2013-07-13 22:09:00,
2013-07-13 17:14:00,86.2,67.6,29.97,ESE,113,2.5,3.4,54,0.00,,,0.00,WUHU216HW,2013-07-13 22:14:00,
2013-07-13 17:19:00,86.4,67.8,29.97,ESE,113,1.3,2.5,54,0.00,,,0.00,WUHU216HW,2013-07-13 22:19:00,
2013-07-13 17:24:00,85.5,67.0,29.97,ESE,113,2.7,4.5,54,0.00,,,0.00,WUHU216HW,2013-07-13 22:24:00,
2013-07-13 17:29:00,85.0,66.4,29.96,ESE,113,3.8,4.5,54,0.00,,,0.00,WUHU216HW,2013-07-13 22:29:00,
2013-07-13 17:34:00,84.6,66.7,29.96,ESE,113,4.0,4.0,55,0.00,,,0.00,WUHU216HW,2013-07-13 22:34:00,
2013-07-13 17:39:00,84.4,67.1,29.96,SE,135,1.8,4.0,56,0.00,,,0.00,WUHU216HW,2013-07-13 22:39:00,
2013-07-13 17:44:00,84.2,67.4,29.96,SE,135,2.2,2.2,57,0.00,,,0.00,WUHU216HW,2013-07-13 22:44:00,
2013-07-13 17:49:00,84.2,67.4,29.96,SE,135,2.7,2.7,57,0.00,,,0.00,WUHU216HW,2013-07-13 22:49:00,
2013-07-13 17:54:00,84.2,67.4,29.96,SE,135,2.7,2.7,57,0.00,,,0.00,WUHU216HW,2013-07-13 22:54:00,
2013-07-13 17:59:00,84.2,67.9,29.96,ESE,113,0.4,2.7,58,0.00,,,0.00,WUHU216HW,2013-07-13 22:59:00,
2013-07-13 18:04:00,84.2,67.9,29.96,SE,135,1.1,2.7,58,0.00,,,0.00,WUHU216HW,2013-07-13 23:04:00,
2013-07-13 18:09:00,84.2,67.4,29.96,ESE,113,1.1,1.1,57,0.00,,,0.00,WUHU216HW,2013-07-13 23:09:00,
2013-07-13 18:14:00,84.6,68.2,29.95,SE,135,1.8,1.8,58,0.00,,,0.00,WUHU216HW,2013-07-13 23:14:00,
2013-07-13 18:19:00,84.8,67.9,29.95,ESE,113,1.8,1.8,57,0.00,,,0.00,WUHU216HW,2013-07-13 23:19:00,
2013-07-13 18:24:00,85.0,68.6,29.95,ESE,113,1.6,1.8,58,0.00,,,0.00,WUHU216HW,2013-07-13 23:24:00,
2013-07-13 18:29:00,84.6,66.7,29.95,SE,135,3.4,3.4,55,0.00,,,0.00,WUHU216HW,2013-07-13 23:29:00,
2013-07-13 18:34:00,83.9,66.0,29.95,ESE,113,1.6,3.4,55,0.00,,,0.00,WUHU216HW,2013-07-13 23:34:00,
2013-07-13 18:39:00,83.3,66.0,29.95,SE,135,2.5,3.4,56,0.00,,,0.00,WUHU216HW,2013-07-13 23:39:00,
2013-07-13 18:44:00,82.4,65.1,29.95,SE,135,4.7,4.7,56,0.00,,,0.00,WUHU216HW,2013-07-13 23:44:00,
2013-07-13 18:49:00,81.9,65.1,29.95,ESE,113,1.8,4.7,57,0.00,,,0.00,WUHU216HW,2013-07-13 23:49:00,
2013-07-13 18:54:00,81.9,65.1,29.95,SE,135,2.5,4.7,57,0.00,,,0.00,WUHU216HW,2013-07-13 23:54:00,
2013-07-13 18:59:00,81.5,64.8,29.95,ESE,113,8.9,8.9,57,0.00,,,0.00,WUHU216HW,2013-07-13 23:59:00,
2013-07-13 19:04:00,81.2,63.4,29.95,South,180,8.5,8.9,55,0.00,,,0.00,WUHU216HW,2013-07-14 00:04:00,
2013-07-13 19:09:00,81.0,63.7,29.95,SE,135,3.4,8.9,56,0.00,,,0.00,WUHU216HW,2013-07-14 00:09:00,
2013-07-13 19:14:00,80.6,64.0,29.95,SE,135,5.8,8.5,57,0.00,,,0.00,WUHU216HW,2013-07-14 00:14:00,
2013-07-13 19:19:00,80.6,64.0,29.95,South,180,2.9,5.8,57,0.00,,,0.00,WUHU216HW,2013-07-14 00:19:00,
2013-07-13 19:24:00,80.5,63.8,29.96,SSW,203,5.4,5.8,57,0.00,,,0.00,WUHU216HW,2013-07-14 00:24:00,
2013-07-13 19:29:00,79.9,63.3,29.96,SSE,158,3.4,5.4,57,0.00,,,0.00,WUHU216HW,2013-07-14 00:29:00,
2013-07-13 19:34:00,79.7,63.2,29.95,SSE,158,4.0,5.1,57,0.00,,,0.00,WUHU216HW,2013-07-14 00:34:00,
2013-07-13 19:39:00,79.6,63.0,29.95,SE,135,3.1,4.0,57,0.00,,,0.00,WUHU216HW,2013-07-14 00:39:00,
2013-07-13 19:44:00,79.2,62.6,29.95,SE,135,4.3,6.3,57,0.00,,,0.00,WUHU216HW,2013-07-14 00:44:00,
2013-07-13 19:49:00,79.0,63.0,29.95,ESE,113,2.9,6.3,58,0.00,,,0.00,WUHU216HW,2013-07-14 00:49:00,
2013-07-13 19:54:00,78.8,62.8,29.94,South,180,3.1,4.3,58,0.00,,,0.00,WUHU216HW,2013-07-14 00:54:00,
2013-07-13 19:59:00,78.7,63.2,29.94,SE,135,5.4,5.4,59,0.00,,,0.00,WUHU216HW,2013-07-14 00:59:00,
2013-07-13 20:04:00,78.5,63.5,29.94,SE,135,1.8,5.4,60,0.00,,,0.00,WUHU216HW,2013-07-14 01:04:00,
2013-07-13 20:09:00,78.3,63.4,29.94,SSE,158,4.9,5.4,60,0.00,,,0.00,WUHU216HW,2013-07-14 01:09:00,
2013-07-13 20:14:00,78.1,63.2,29.94,SSE,158,2.9,4.9,60,0.00,,,0.00,WUHU216HW,2013-07-14 01:14:00,
2013-07-13 20:19:00,77.9,63.5,29.95,SE,135,3.1,4.9,61,0.00,,,0.00,WUHU216HW,2013-07-14 01:19:00,
2013-07-13 20:24:00,77.8,63.3,29.95,SE,135,5.6,5.6,61,0.00,,,0.00,WUHU216HW,2013-07-14 01:24:00,
2013-07-13 20:29:00,77.6,63.6,29.96,SE,135,3.1,5.6,62,0.00,,,0.00,WUHU216HW,2013-07-14 01:29:00,
2013-07-13 20:34:00,77.4,63.4,29.96,SSE,158,4.0,5.6,62,0.00,,,0.00,WUHU216HW,2013-07-14 01:34:00,
2013-07-13 20:39:00,77.2,63.6,29.96,ESE,113,4.3,4.3,63,0.00,,,0.00,WUHU216HW,2013-07-14 01:39:00,
2013-07-13 20:44:00,77.0,63.5,29.96,SE,135,4.9,4.9,63,0.00,,,0.00,WUHU216HW,2013-07-14 01:44:00,
2013-07-13 20:49:00,77.0,63.5,29.96,SE,135,2.5,4.9,63,0.00,,,0.00,WUHU216HW,2013-07-14 01:49:00,
2013-07-13 20:54:00,76.7,63.1,29.96,SE,135,3.4,4.9,63,0.00,,,0.00,WUHU216HW,2013-07-14 01:54:00,
2013-07-13 20:59:00,76.5,63.4,29.96,SE,135,3.1,3.8,64,0.00,,,0.00,WUHU216HW,2013-07-14 01:59:00,
2013-07-13 21:04:00,76.3,62.8,29.96,SE,135,4.7,4.7,63,0.00,,,0.00,WUHU216HW,2013-07-14 02:04:00,
2013-07-13 21:09:00,76.1,63.1,29.97,ESE,113,2.2,4.7,64,0.00,,,0.00,WUHU216HW,2013-07-14 02:09:00,
2013-07-13 21:14:00,76.0,62.9,29.97,SSE,158,2.2,4.7,64,0.00,,,0.00,WUHU216HW,2013-07-14 02:14:00,
2013-07-13 21:19:00,75.6,63.0,29.97,ESE,113,3.6,3.6,65,0.00,,,0.00,WUHU216HW,2013-07-14 02:19:00,
2013-07-13 21:24:00,75.4,62.8,29.97,East,90,1.8,3.6,65,0.00,,,0.00,WUHU216HW,2013-07-14 02:24:00,
2013-07-13 21:29:00,75.2,62.6,29.97,ESE,113,1.8,3.6,65,0.00,,,0.00,WUHU216HW,2013-07-14 02:29:00,
2013-07-13 21:34:00,75.1,62.5,29.97,East,90,1.3,1.8,65,0.00,,,0.00,WUHU216HW,2013-07-14 02:34:00,
2013-07-13 21:39:00,74.7,62.6,29.98,ESE,113,0.4,1.8,66,0.00,,,0.00,WUHU216HW,2013-07-14 02:39:00,
2013-07-13 21:44:00,74.5,62.8,29.98,ENE,68,2.0,2.0,67,0.00,,,0.00,WUHU216HW,2013-07-14 02:44:00,
2013-07-13 21:49:00,74.2,62.5,29.99,ESE,113,2.2,2.2,67,0.00,,,0.00,WUHU216HW,2013-07-14 02:49:00,
2013-07-13 21:54:00,74.0,62.8,29.99,ESE,113,2.9,2.9,68,0.00,,,0.00,WUHU216HW,2013-07-14 02:54:00,
2013-07-13 21:59:00,73.8,63.1,29.99,ESE,113,2.2,2.9,69,0.00,,,0.00,WUHU216HW,2013-07-14 02:59:00,
2013-07-13 22:04:00,73.8,63.1,29.99,SSE,158,2.0,2.9,69,0.00,,,0.00,WUHU216HW,2013-07-14 03:04:00,
2013-07-13 22:09:00,73.6,62.9,29.99,East,90,2.0,2.5,69,0.00,,,0.00,WUHU216HW,2013-07-14 03:09:00,
2013-07-13 22:14:00,73.4,63.2,29.99,East,90,1.6,2.0,70,0.00,,,0.00,WUHU216HW,2013-07-14 03:14:00,
2013-07-13 22:19:00,73.1,62.8,29.99,ESE,113,0.9,2.0,70,0.00,,,0.00,WUHU216HW,2013-07-14 03:19:00,
2013-07-13 22:24:00,73.1,63.2,29.99,ENE,68,1.1,1.1,71,0.00,,,0.00,WUHU216HW,2013-07-14 03:24:00,
2013-07-13 22:29:00,72.9,63.0,29.99,ENE,68,0.9,1.1,71,0.00,,,0.00,WUHU216HW,2013-07-14 03:29:00,
2013-07-13 22:34:00,72.5,63.0,30.00,East,90,1.8,1.8,72,0.00,,,0.00,WUHU216HW,2013-07-14 03:34:00,
2013-07-13 22:39:00,72.4,62.8,30.00,East,90,2.5,2.5,72,0.00,,,0.00,WUHU216HW,2013-07-14 03:39:00,
2013-07-13 22:44:00,72.4,62.8,30.00,ENE,68,2.0,2.5,72,0.00,,,0.00,WUHU216HW,2013-07-14 03:44:00,
2013-07-13 22:49:00,72.4,62.8,30.01,East,90,2.0,3.1,72,0.00,,,0.00,WUHU216HW,2013-07-14 03:49:00,
2013-07-13 22:54:00,72.4,62.8,30.01,ENE,68,0.9,3.1,72,0.00,,,0.00,WUHU216HW,2013-07-14 03:54:00,
2013-07-13 22:59:00,72.4,62.8,30.01,ENE,68,4.0,4.0,72,0.00,,,0.00,WUHU216HW,2013-07-14 03:59:00,
2013-07-13 23:01:00,72.4,62.8,30.01,East,90,2.2,4.0,72,0.00,,,0.00,WUHU216HW,2013-07-14 04:01:00,
2013-07-13 23:06:00,72.2,62.6,30.01,East,90,0.9,4.0,72,0.00,,,0.00,WUHU216HW,2013-07-14 04:06:00,
2013-07-13 23:11:00,72.0,62.5,30.00,SE,135,0.2,2.2,72,0.00,,,0.00,WUHU216HW,2013-07-14 04:11:00,
2013-07-13 23:16:00,72.0,62.5,30.00,SE,135,1.1,1.1,72,0.00,,,0.00,WUHU216HW,2013-07-14 04:16:00,
2013-07-13 23:21:00,71.8,61.9,29.99,SE,135,2.7,2.7,71,0.00,,,0.00,WUHU216HW,2013-07-14 04:21:00,
2013-07-13 23:26:00,71.6,62.6,29.99,SE,135,0.9,2.7,73,0.00,,,0.00,WUHU216HW,2013-07-14 04:26:00,
2013-07-13 23:31:00,71.5,62.4,29.99,ESE,113,1.3,2.7,73,0.00,,,0.00,WUHU216HW,2013-07-14 04:31:00,
2013-07-13 23:36:00,71.3,62.2,29.99,East,90,2.5,2.5,73,0.00,,,0.00,WUHU216HW,2013-07-14 04:36:00,
2013-07-13 23:41:00,71.3,62.2,29.99,SE,135,1.8,2.5,73,0.00,,,0.00,WUHU216HW,2013-07-14 04:41:00,
2013-07-13 23:46:00,71.1,62.0,29.99,SE,135,1.3,1.8,73,0.00,,,0.00,WUHU216HW,2013-07-14 04:46:00,
2013-07-13 23:51:00,70.9,62.2,29.99,ESE,113,0.7,1.8,74,0.00,,,0.00,WUHU216HW,2013-07-14 04:51:00,
2013-07-13 23:56:00,70.9,62.2,29.99,East,90,0.9,1.3,74,0.00,,,0.00,WUHU216HW,2013-07-14 04:56:00,